START_TIME,STEP,MOV.,M35,t_acc.,PL05,t_acc.,PL06,t_acc.,PL07,t_acc.
1980-11-14 06:00:12.470 ,5,0,0.,4.8,2.,4.8,1.,4.8,2.,4.8
1980-11-14 06:00:17.270 ,5,0,0.,4.8,2.,4.8,0.,4.8,0.,4.8
1980-11-14 06:00:22.070 ,5,0,0.,4.8,1.,4.8,0.,4.8,0.,4.8
1980-11-14 06:00:26.870 ,5,0,0.,4.8,0.,4.8,1.,4.8,0.,4.8
1980-11-14 06:00:31.670 ,5,0,0.,4.8,2.,4.8,0.,4.8,0.,4.8
1980-11-14 06:00:36.470 ,6,0,0.,4.8,0.,4.8,0.,4.8,0.,4.8
1980-11-14 06:00:41.270 ,6,0,0.,4.8,2.,4.8,0.,4.8,0.,4.8
1980-11-14 06:00:46.070 ,6,0,0.,4.8,3.,4.8,0.,4.8,0.,4.8
1980-11-14 06:00:50.870 ,6,0,0.,4.8,1.,4.8,0.,4.8,0.,4.8
1980-11-14 06:00:55.670 ,6,0,0.,4.8,2.,4.8,0.,4.8,0.,4.8
1980-11-14 06:01:00.470 ,6,0,0.,4.8,2.,4.8,0.,4.8,0.,4.8
1980-11-14 06:01:05.270 ,6,0,0.,4.8,0.,4.8,0.,4.8,0.,4.8
1980-11-14 06:01:10.070 ,6,0,0.,4.8,1.,4.8,0.,4.8,0.,4.8
1980-11-14 06:01:14.870 ,6,0,0.,4.8,0.,4.8,0.,4.8,0.,4.8
1980-11-14 06:01:19.670 ,6,0,0.,4.8,0.,4.8,1.,4.8,0.,4.8
1980-11-14 06:01:24.470 ,7,0,0.,4.8,3.,4.8,0.,4.8,0.,4.8
1980-11-14 06:01:29.270 ,7,0,0.,4.8,0.,4.8,0.,4.8,1.,4.8
1980-11-14 06:01:34.070 ,7,0,0.,4.8,0.,4.8,1.,4.8,0.,4.8
1980-11-14 06:01:38.870 ,7,0,0.,4.8,1.,4.8,0.,4.8,0.,4.8
1980-11-14 06:01:43.670 ,7,0,0.,4.8,1.,4.8,0.,4.8,1.,4.8
1980-11-14 06:01:48.470 ,7,0,0.,4.8,0.,4.8,0.,4.8,0.,4.8
1980-11-14 06:01:53.270 ,7,0,0.,4.8,1.,4.8,0.,4.8,0.,4.8
1980-11-14 06:01:58.070 ,7,0,0.,4.8,2.,4.8,1.,4.8,0.,4.8
1980-11-14 06:02:02.870 ,7,0,0.,4.8,0.,4.8,1.,4.8,0.,4.8
1980-11-14 06:02:07.670 ,7,0,0.,4.8,0.,4.8,1.,4.8,1.,4.8
1980-11-14 06:02:12.470 ,7,0,0.,4.8,0.,4.8,1.,4.8,0.,4.8
1980-11-14 06:02:17.270 ,7,0,0.,4.8,1.,4.8,1.,4.8,0.,4.8
1980-11-14 06:02:22.070 ,7,0,0.,4.8,0.,4.8,0.,4.8,0.,4.8
1980-11-14 06:02:26.870 ,7,0,0.,4.8,0.,4.8,0.,4.8,0.,4.8
1980-11-14 06:02:31.670 ,7,0,0.,4.8,0.,4.8,2.,4.8,2.,4.8
1980-11-14 06:02:36.470 ,7,0,0.,4.8,1.,4.8,0.,4.8,0.,4.8
1980-11-14 06:02:41.270 ,7,0,0.,4.8,0.,4.8,1.,4.8,1.,4.8
1980-11-14 06:02:46.070 ,7,0,0.,4.8,1.,4.8,1.,4.8,0.,4.8
1980-11-14 06:02:50.870 ,7,0,0.,4.8,0.,4.8,0.,4.8,0.,4.8
1980-11-14 06:02:55.670 ,7,0,0.,4.8,1.,4.8,0.,4.8,0.,4.8
1980-11-14 06:03:00.470 ,6,0,0.,4.8,0.,4.8,1.,4.8,0.,4.8
1980-11-14 06:03:05.270 ,6,0,0.,4.8,1.,4.8,0.,4.8,1.,4.8
1980-11-14 06:03:10.070 ,6,0,0.,4.8,1.,4.8,0.,4.8,0.,4.8
1980-11-14 06:03:14.870 ,6,0,0.,4.8,2.,4.8,1.,4.8,0.,4.8
1980-11-14 06:03:19.670 ,6,0,0.,4.8,1.,4.8,1.,4.8,0.,4.8
1980-11-14 06:03:24.470 ,6,0,0.,4.8,1.,4.8,0.,4.8,1.,4.8
1980-11-14 06:03:29.270 ,6,0,0.,4.8,0.,4.8,0.,4.8,0.,4.8
1980-11-14 06:03:34.070 ,6,0,0.,4.8,0.,4.8,0.,4.8,0.,4.8
1980-11-14 06:03:38.870 ,6,0,0.,4.8,0.,4.8,0.,4.8,0.,4.8
1980-11-14 06:03:43.670 ,6,0,0.,4.8,1.,4.8,0.,4.8,0.,4.8
1980-11-14 06:03:48.470 ,5,0,0.,4.8,2.,4.8,0.,4.8,0.,4.8
1980-11-14 06:03:53.270 ,5,0,0.,4.8,1.,4.8,1.,4.8,0.,4.8
1980-11-14 06:03:58.070 ,5,0,0.,4.8,0.,4.8,0.,4.8,0.,4.8
1980-11-14 06:04:02.870 ,5,0,0.,4.8,0.,4.8,0.,4.8,0.,4.8
1980-11-14 06:04:07.670 ,5,0,0.,4.8,0.,4.8,0.,4.8,0.,4.8
1980-11-14 06:04:12.470 ,5,0,0.,4.8,1.,4.8,0.,4.8,0.,4.8
1980-11-14 06:04:17.270 ,5,0,0.,4.8,1.,4.8,0.,4.8,0.,4.8
1980-11-14 06:04:22.070 ,5,0,0.,4.8,0.,4.8,0.,4.8,0.,4.8
1980-11-14 06:04:26.870 ,5,0,0.,4.8,2.,4.8,0.,4.8,0.,4.8
1980-11-14 06:04:31.670 ,5,0,0.,4.8,0.,4.8,0.,4.8,0.,4.8
1980-11-14 06:04:36.470 ,4,0,0.,4.8,0.,4.8,0.,4.8,0.,4.8
1980-11-14 06:04:41.270 ,4,0,0.,4.8,2.,4.8,1.,4.8,0.,4.8
1980-11-14 06:04:46.070 ,4,0,0.,4.8,1.,4.8,0.,4.8,0.,4.8
1980-11-14 06:04:50.870 ,4,0,0.,4.8,1.,4.8,0.,4.8,0.,4.8
1980-11-14 06:04:55.670 ,4,0,0.,4.8,0.,4.8,1.,4.8,0.,4.8
1980-11-14 06:05:00.470 ,4,0,0.,4.8,3.,4.8,0.,4.8,0.,4.8
1980-11-14 06:05:05.270 ,4,0,0.,4.8,0.,4.8,0.,4.8,0.,4.8
1980-11-14 06:05:10.070 ,4,0,0.,4.8,0.,4.8,0.,4.8,0.,4.8
1980-11-14 06:05:14.870 ,4,0,0.,4.8,2.,4.8,0.,4.8,0.,4.8
1980-11-14 06:05:19.670 ,4,0,0.,4.8,1.,4.8,0.,4.8,0.,4.8
1980-11-14 06:05:24.470 ,3,0,0.,4.8,2.,4.8,1.,4.8,0.,4.8
1980-11-14 06:05:29.270 ,3,0,0.,4.8,1.,4.8,0.,4.8,0.,4.8
1980-11-14 06:05:34.070 ,3,0,0.,4.8,0.,4.8,0.,4.8,0.,4.8
1980-11-14 06:05:38.870 ,3,0,0.,4.8,1.,4.8,0.,4.8,0.,4.8
1980-11-14 06:05:43.670 ,3,0,0.,4.8,1.,4.8,0.,4.8,0.,4.8
1980-11-14 06:05:48.470 ,3,0,0.,4.8,2.,4.8,0.,4.8,0.,4.8
1980-11-14 06:05:53.270 ,3,0,0.,4.8,1.,4.8,0.,4.8,0.,4.8
1980-11-14 06:05:58.070 ,3,0,0.,4.8,1.,4.8,0.,4.8,1.,4.8
1980-11-14 06:06:02.870 ,3,0,0.,4.8,1.,4.8,1.,4.8,1.,4.8
1980-11-14 06:06:07.670 ,3,0,0.,4.8,1.,4.8,0.,4.8,0.,4.8
1980-11-14 06:06:12.470 ,2,0,0.,4.8,0.,4.8,1.,4.8,0.,4.8
1980-11-14 06:06:17.270 ,2,0,0.,4.8,0.,4.8,0.,4.8,0.,4.8
1980-11-14 06:06:22.070 ,2,0,0.,4.8,1.,4.8,0.,4.8,0.,4.8
1980-11-14 06:06:26.870 ,2,0,0.,4.8,3.,4.8,1.,4.8,0.,4.8
1980-11-14 06:06:31.670 ,2,0,0.,4.8,0.,4.8,0.,4.8,0.,4.8
1980-11-14 06:06:36.470 ,2,0,0.,4.8,1.,4.8,0.,4.8,1.,4.8
1980-11-14 06:06:41.270 ,2,0,0.,4.8,3.,4.8,0.,4.8,0.,4.8
1980-11-14 06:06:46.070 ,2,0,0.,4.8,3.,4.8,0.,4.8,0.,4.8
1980-11-14 06:06:50.870 ,2,0,0.,4.8,1.,4.8,0.,4.8,0.,4.8
1980-11-14 06:06:55.670 ,2,0,0.,4.8,0.,4.8,0.,4.8,0.,4.8
1980-11-14 06:07:00.470 ,1,0,0.,4.8,1.,4.8,0.,4.8,0.,4.8
1980-11-14 06:07:05.270 ,1,0,0.,4.8,0.,4.8,0.,4.8,0.,4.8
1980-11-14 06:07:10.070 ,1,0,0.,4.8,1.,4.8,0.,4.8,0.,4.8
1980-11-14 06:07:14.870 ,1,0,0.,4.8,1.,4.8,0.,4.8,0.,4.8
1980-11-14 06:07:19.670 ,1,0,0.,4.8,3.,4.8,1.,4.8,0.,4.8
1980-11-14 06:07:24.470 ,1,0,0.,4.8,0.,4.8,0.,4.8,0.,4.8
1980-11-14 06:07:29.270 ,1,0,0.,4.8,1.,4.8,0.,4.8,0.,4.8
1980-11-14 06:07:34.070 ,1,0,0.,4.8,2.,4.8,0.,4.8,0.,4.8
1980-11-14 06:07:38.870 ,1,0,0.,4.8,2.,4.8,0.,4.8,1.,4.8
1980-11-14 06:07:43.670 ,1,0,0.,4.8,1.,4.8,0.,4.8,0.,4.8
1980-11-14 06:07:48.470 ,0,0,0.,4.8,2.,4.8,0.,4.8,0.,4.8
1980-11-14 06:07:53.270 ,0,0,0.,4.8,1.,4.8,0.,4.8,0.,4.8
1980-11-14 06:07:58.070 ,0,0,0.,4.8,0.,4.8,0.,4.8,0.,4.8
1980-11-14 06:08:02.870 ,0,0,0.,4.8,3.,4.8,0.,4.8,0.,4.8
1980-11-14 06:08:07.670 ,0,0,0.,4.8,0.,4.8,0.,4.8,0.,4.8
1980-11-14 06:08:12.470 ,0,0,0.,4.8,1.,4.8,0.,4.8,0.,4.8
1980-11-14 06:08:17.270 ,0,0,0.,4.8,3.,4.8,0.,4.8,0.,4.8
1980-11-14 06:08:22.070 ,0,0,0.,4.8,2.,4.8,0.,4.8,1.,4.8
1980-11-14 06:08:26.870 ,0,0,0.,4.8,2.,4.8,0.,4.8,0.,4.8
1980-11-14 06:08:31.670 ,0,0,0.,4.8,0.,4.8,0.,4.8,0.,4.8
1980-11-14 06:08:36.470 ,0,0,0.,4.8,0.,4.8,0.,4.8,0.,4.8
1980-11-14 06:08:41.270 ,0,0,0.,4.8,0.,4.8,0.,4.8,0.,4.8
1980-11-14 06:08:46.070 ,0,0,0.,4.8,0.,4.8,0.,4.8,0.,4.8
1980-11-14 06:08:50.870 ,0,0,0.,4.8,1.,4.8,1.,4.8,0.,4.8
1980-11-14 06:08:55.670 ,0,0,0.,4.8,1.,4.8,0.,4.8,0.,4.8
1980-11-14 06:09:00.470 ,0,0,0.,4.8,1.,4.8,0.,4.8,1.,4.8
1980-11-14 06:09:05.270 ,0,0,0.,4.8,1.,4.8,1.,4.8,0.,4.8
1980-11-14 06:09:10.070 ,0,0,0.,4.8,1.,4.8,0.,4.8,0.,4.8
1980-11-14 06:09:14.870 ,0,0,0.,4.8,1.,4.8,0.,4.8,0.,4.8
1980-11-14 06:09:19.670 ,0,0,0.,4.8,1.,4.8,0.,4.8,0.,4.8
1980-11-14 06:09:24.470 ,1,0,0.,4.8,2.,4.8,0.,4.8,0.,4.8
1980-11-14 06:09:29.270 ,1,0,0.,4.8,1.,4.8,0.,4.8,1.,4.8
1980-11-14 06:09:34.070 ,1,0,0.,4.8,0.,4.8,0.,4.8,0.,4.8
1980-11-14 06:09:38.870 ,1,0,0.,4.8,2.,4.8,0.,4.8,0.,4.8
1980-11-14 06:09:43.670 ,1,0,0.,4.8,2.,4.8,1.,4.8,0.,4.8
1980-11-14 06:09:48.470 ,1,0,0.,4.8,3.,4.8,0.,4.8,0.,4.8
1980-11-14 06:09:53.270 ,1,0,0.,4.8,2.,4.8,0.,4.8,0.,4.8
1980-11-14 06:09:58.070 ,1,0,0.,4.8,1.,4.8,0.,4.8,0.,4.8
1980-11-14 06:10:02.870 ,1,0,0.,4.8,3.,4.8,0.,4.8,0.,4.8
1980-11-14 06:10:07.670 ,1,0,0.,4.8,2.,4.8,0.,4.8,1.,4.8
1980-11-14 06:10:12.470 ,2,0,0.,4.8,1.,4.8,0.,4.8,0.,4.8
1980-11-14 06:10:17.270 ,2,0,0.,4.8,2.,4.8,0.,4.8,0.,4.8
1980-11-14 06:10:22.070 ,2,0,0.,4.8,1.,4.8,0.,4.8,0.,4.8
1980-11-14 06:10:26.870 ,2,0,0.,4.8,2.,4.8,0.,4.8,0.,4.8
1980-11-14 06:10:31.670 ,2,0,0.,4.8,0.,4.8,1.,4.8,0.,4.8
1980-11-14 06:10:36.470 ,2,0,0.,4.8,0.,4.8,0.,4.8,0.,4.8
1980-11-14 06:10:41.270 ,2,0,0.,4.8,1.,4.8,0.,4.8,0.,4.8
1980-11-14 06:10:46.070 ,2,0,0.,4.8,1.,4.8,0.,4.8,0.,4.8
1980-11-14 06:10:50.870 ,2,0,0.,4.8,2.,4.8,0.,4.8,0.,4.8
1980-11-14 06:10:55.670 ,2,0,0.,4.8,0.,4.8,0.,4.8,0.,4.8
1980-11-14 06:11:00.470 ,3,0,0.,4.8,3.,4.8,0.,4.8,1.,4.8
1980-11-14 06:11:05.270 ,3,0,0.,4.8,0.,4.8,0.,4.8,0.,4.8
1980-11-14 06:11:10.070 ,3,0,0.,4.8,0.,4.8,0.,4.8,0.,4.8
1980-11-14 06:11:14.870 ,3,0,0.,4.8,1.,4.8,0.,4.8,0.,4.8
1980-11-14 06:11:19.670 ,3,0,0.,4.8,0.,4.8,0.,4.8,0.,4.8
1980-11-14 06:11:24.470 ,3,0,0.,4.8,2.,4.8,0.,4.8,0.,4.8
1980-11-14 06:11:29.270 ,3,0,0.,4.8,2.,4.8,0.,4.8,0.,4.8
1980-11-14 06:11:34.070 ,3,0,0.,4.8,2.,4.8,0.,4.8,0.,4.8
1980-11-14 06:11:38.870 ,3,0,0.,4.8,1.,4.8,0.,4.8,0.,4.8
1980-11-14 06:11:43.670 ,3,0,0.,4.8,2.,4.8,1.,4.8,0.,4.8
1980-11-14 06:11:48.470 ,4,0,0.,4.8,0.,4.8,0.,4.8,0.,4.8
1980-11-14 06:11:53.270 ,4,0,0.,4.8,2.,4.8,0.,4.8,0.,4.8
1980-11-14 06:11:58.070 ,4,0,0.,4.8,1.,4.8,1.,4.8,0.,4.8
1980-11-14 06:12:02.870 ,4,0,0.,4.8,1.,4.8,0.,4.8,0.,4.8
1980-11-14 06:12:07.670 ,4,0,0.,4.8,2.,4.8,1.,4.8,1.,4.8
1980-11-14 06:12:12.470 ,4,0,0.,4.8,0.,4.8,0.,4.8,0.,4.8
1980-11-14 06:12:17.270 ,4,0,0.,4.8,2.,4.8,0.,4.8,0.,4.8
1980-11-14 06:12:22.070 ,4,0,0.,4.8,3.,4.8,0.,4.8,0.,4.8
1980-11-14 06:12:26.870 ,4,0,0.,4.8,1.,4.8,0.,4.8,0.,4.8
1980-11-14 06:12:31.670 ,4,0,0.,4.8,2.,4.8,1.,4.8,0.,4.8
1980-11-14 06:12:36.470 ,5,0,0.,4.8,3.,4.8,0.,4.8,0.,4.8
1980-11-14 06:12:41.270 ,5,0,0.,4.8,0.,4.8,0.,4.8,0.,4.8
1980-11-14 06:12:46.070 ,5,0,0.,4.8,0.,4.8,0.,4.8,0.,4.8
1980-11-14 06:12:50.870 ,5,0,0.,4.8,0.,4.8,0.,4.8,0.,4.8
1980-11-14 06:12:55.670 ,5,0,0.,4.8,0.,4.8,0.,4.8,0.,4.8
1980-11-14 06:13:00.470 ,5,0,0.,4.8,1.,4.8,0.,4.8,0.,4.8
1980-11-14 06:13:05.270 ,5,0,0.,4.8,2.,4.8,0.,4.8,0.,4.8
1980-11-14 06:13:10.070 ,5,0,0.,4.8,0.,4.8,0.,4.8,0.,4.8
1980-11-14 06:13:14.870 ,5,0,0.,4.8,0.,4.8,0.,4.8,0.,4.8
1980-11-14 06:13:19.670 ,5,0,0.,4.8,0.,4.8,0.,4.8,1.,4.8
1980-11-14 06:13:24.470 ,6,0,0.,4.8,0.,4.8,0.,4.8,0.,4.8
1980-11-14 06:13:29.270 ,6,0,0.,4.8,0.,4.8,0.,4.8,0.,4.8
1980-11-14 06:13:34.070 ,6,0,0.,4.8,0.,4.8,0.,4.8,0.,4.8
1980-11-14 06:13:38.870 ,6,0,0.,4.8,1.,4.8,0.,4.8,0.,4.8
1980-11-14 06:13:43.670 ,6,0,0.,4.8,3.,4.8,0.,4.8,0.,4.8
1980-11-14 06:13:48.470 ,6,0,0.,4.8,2.,4.8,0.,4.8,0.,4.8
1980-11-14 06:13:53.270 ,6,0,0.,4.8,1.,4.8,0.,4.8,0.,4.8
1980-11-14 06:13:58.070 ,6,0,0.,4.8,1.,4.8,0.,4.8,0.,4.8
1980-11-14 06:14:02.870 ,6,0,0.,4.8,1.,4.8,0.,4.8,1.,4.8
1980-11-14 06:14:07.670 ,6,0,0.,4.8,4.,4.8,0.,4.8,0.,4.8
1980-11-14 06:14:12.470 ,7,0,0.,4.8,3.,4.8,0.,4.8,0.,4.8
1980-11-14 06:14:17.270 ,7,0,0.,4.8,2.,4.8,0.,4.8,0.,4.8
1980-11-14 06:14:22.070 ,7,0,0.,4.8,0.,4.8,0.,4.8,0.,4.8
1980-11-14 06:14:26.870 ,7,0,0.,4.8,0.,4.8,1.,4.8,0.,4.8
1980-11-14 06:14:31.670 ,7,0,0.,4.8,2.,4.8,0.,4.8,0.,4.8
1980-11-14 06:14:36.470 ,7,0,0.,4.8,0.,4.8,0.,4.8,0.,4.8
1980-11-14 06:14:41.270 ,7,0,0.,4.8,0.,4.8,0.,4.8,0.,4.8
1980-11-14 06:14:46.070 ,7,0,0.,4.8,0.,4.8,0.,4.8,0.,4.8
1980-11-14 06:14:50.870 ,7,0,0.,4.8,1.,4.8,0.,4.8,0.,4.8
1980-11-14 06:14:55.670 ,7,0,0.,4.8,0.,4.8,0.,4.8,0.,4.8
1980-11-14 06:15:00.470 ,7,0,0.,4.8,1.,4.8,0.,4.8,0.,4.8
1980-11-14 06:15:05.270 ,7,0,0.,4.8,0.,4.8,2.,4.8,0.,4.8
1980-11-14 06:15:10.070 ,7,0,0.,4.8,1.,4.8,0.,4.8,0.,4.8
1980-11-14 06:15:14.870 ,7,0,0.,4.8,0.,4.8,0.,4.8,1.,4.8
1980-11-14 06:15:19.670 ,7,0,0.,4.8,0.,4.8,0.,4.8,0.,4.8
1980-11-14 06:15:24.470 ,7,0,0.,4.8,1.,4.8,1.,4.8,0.,4.8
1980-11-14 06:15:29.270 ,7,0,0.,4.8,1.,4.8,1.,4.8,0.,4.8
1980-11-14 06:15:34.070 ,7,0,0.,4.8,0.,4.8,0.,4.8,0.,4.8
1980-11-14 06:15:38.870 ,7,0,0.,4.8,0.,4.8,0.,4.8,0.,4.8
1980-11-14 06:15:43.670 ,7,0,0.,4.8,0.,4.8,2.,4.8,0.,4.8
1980-11-14 06:15:48.470 ,6,0,0.,4.8,1.,4.8,2.,4.8,0.,4.8
1980-11-14 06:15:53.270 ,6,0,0.,4.8,1.,4.8,1.,4.8,0.,4.8
1980-11-14 06:15:58.070 ,6,0,0.,4.8,4.,4.8,0.,4.8,0.,4.8
1980-11-14 06:16:02.870 ,6,0,0.,4.8,1.,4.8,0.,4.8,0.,4.8
1980-11-14 06:16:07.670 ,6,0,0.,4.8,2.,4.8,0.,4.8,0.,4.8
1980-11-14 06:16:12.470 ,6,0,0.,4.8,1.,4.8,0.,4.8,0.,4.8
1980-11-14 06:16:17.270 ,6,0,0.,4.8,0.,4.8,0.,4.8,0.,4.8
1980-11-14 06:16:22.070 ,6,0,0.,4.8,1.,4.8,0.,4.8,0.,4.8
1980-11-14 06:16:26.870 ,6,0,0.,4.8,1.,4.8,1.,4.8,1.,4.8
1980-11-14 06:16:31.670 ,6,0,0.,4.8,2.,4.8,0.,4.8,1.,4.8
1980-11-14 06:16:36.470 ,5,0,0.,4.8,1.,4.8,0.,4.8,0.,4.8
1980-11-14 06:16:41.270 ,5,0,0.,4.8,3.,4.8,0.,4.8,0.,4.8
1980-11-14 06:16:46.070 ,5,0,0.,4.8,0.,4.8,0.,4.8,0.,4.8
1980-11-14 06:16:50.870 ,5,0,0.,4.8,1.,4.8,0.,4.8,0.,4.8
1980-11-14 06:16:55.670 ,5,0,0.,4.8,0.,4.8,0.,4.8,0.,4.8
1980-11-14 06:17:00.470 ,5,0,0.,4.8,2.,4.8,0.,4.8,0.,4.8
1980-11-14 06:17:05.270 ,5,0,0.,4.8,2.,4.8,0.,4.8,0.,4.8
1980-11-14 06:17:10.070 ,5,0,0.,4.8,0.,4.8,0.,4.8,1.,4.8
1980-11-14 06:17:14.870 ,5,0,0.,4.8,1.,4.8,0.,4.8,0.,4.8
1980-11-14 06:17:19.670 ,5,0,0.,4.8,4.,4.8,0.,4.8,0.,4.8
1980-11-14 06:17:24.470 ,4,0,0.,4.8,1.,4.8,0.,4.8,0.,4.8
1980-11-14 06:17:29.270 ,4,0,0.,4.8,6.,4.8,0.,4.8,1.,4.8
1980-11-14 06:17:34.070 ,4,0,0.,4.8,3.,4.8,0.,4.8,0.,4.8
1980-11-14 06:17:38.870 ,4,0,0.,4.8,1.,4.8,0.,4.8,0.,4.8
1980-11-14 06:17:43.670 ,4,0,0.,4.8,1.,4.8,0.,4.8,0.,4.8
1980-11-14 06:17:48.470 ,4,0,0.,4.8,2.,4.8,0.,4.8,0.,4.8
1980-11-14 06:17:53.270 ,4,0,0.,4.8,1.,4.8,0.,4.8,0.,4.8
1980-11-14 06:17:58.070 ,4,0,0.,4.8,1.,4.8,0.,4.8,0.,4.8
1980-11-14 06:18:02.870 ,4,0,0.,4.8,3.,4.8,0.,4.8,0.,4.8
1980-11-14 06:18:07.670 ,4,0,0.,4.8,1.,4.8,0.,4.8,0.,4.8
1980-11-14 06:18:12.470 ,3,0,0.,4.8,2.,4.8,0.,4.8,0.,4.8
1980-11-14 06:18:17.270 ,3,0,0.,4.8,1.,4.8,0.,4.8,0.,4.8
1980-11-14 06:18:22.070 ,3,0,0.,4.8,0.,4.8,0.,4.8,0.,4.8
1980-11-14 06:18:26.870 ,3,0,0.,4.8,3.,4.8,0.,4.8,0.,4.8
1980-11-14 06:18:31.670 ,3,0,0.,4.8,0.,4.8,0.,4.8,0.,4.8
1980-11-14 06:18:36.470 ,3,0,0.,4.8,2.,4.8,0.,4.8,0.,4.8
1980-11-14 06:18:41.270 ,3,0,0.,4.8,2.,4.8,0.,4.8,0.,4.8
1980-11-14 06:18:46.070 ,3,0,0.,4.8,1.,4.8,0.,4.8,0.,4.8
1980-11-14 06:18:50.870 ,3,0,0.,4.8,1.,4.8,0.,4.8,0.,4.8
1980-11-14 06:18:55.670 ,3,0,0.,4.8,3.,4.8,0.,4.8,1.,4.8
1980-11-14 06:19:00.470 ,2,0,0.,4.8,5.,4.8,0.,4.8,0.,4.8
1980-11-14 06:19:05.270 ,2,0,0.,4.8,0.,4.8,0.,4.8,0.,4.8
1980-11-14 06:19:10.070 ,2,0,0.,4.8,2.,4.8,0.,4.8,0.,4.8
1980-11-14 06:19:14.870 ,2,0,0.,4.8,0.,4.8,2.,4.8,0.,4.8
1980-11-14 06:19:19.670 ,2,0,0.,4.8,1.,4.8,0.,4.8,0.,4.8
1980-11-14 06:19:24.470 ,2,0,0.,4.8,2.,4.8,0.,4.8,0.,4.8
1980-11-14 06:19:29.270 ,2,0,0.,4.8,1.,4.8,0.,4.8,1.,4.8
1980-11-14 06:19:34.070 ,2,0,0.,4.8,0.,4.8,0.,4.8,0.,4.8
1980-11-14 06:19:38.870 ,2,0,0.,4.8,4.,4.8,0.,4.8,0.,4.8
1980-11-14 06:19:43.670 ,2,0,0.,4.8,0.,4.8,0.,4.8,0.,4.8
1980-11-14 06:19:48.470 ,1,0,0.,4.8,1.,4.8,0.,4.8,0.,4.8
1980-11-14 06:19:53.270 ,1,0,0.,4.8,2.,4.8,0.,4.8,0.,4.8
1980-11-14 06:19:58.070 ,1,0,0.,4.8,2.,4.8,0.,4.8,0.,4.8
1980-11-14 06:20:02.870 ,1,0,0.,4.8,2.,4.8,0.,4.8,0.,4.8
1980-11-14 06:20:07.670 ,1,0,0.,4.8,3.,4.8,0.,4.8,0.,4.8
1980-11-14 06:20:12.470 ,1,0,0.,4.8,5.,4.8,0.,4.8,0.,4.8
1980-11-14 06:20:17.270 ,1,0,0.,4.8,2.,4.8,0.,4.8,0.,4.8
1980-11-14 06:20:22.070 ,1,0,0.,4.8,1.,4.8,0.,4.8,1.,4.8
1980-11-14 06:20:26.870 ,1,0,0.,4.8,2.,4.8,0.,4.8,0.,4.8
1980-11-14 06:20:31.670 ,1,0,0.,4.8,0.,4.8,0.,4.8,0.,4.8
1980-11-14 06:20:36.470 ,0,0,0.,4.8,5.,4.8,0.,4.8,0.,4.8
1980-11-14 06:20:41.270 ,0,0,0.,4.8,0.,4.8,0.,4.8,0.,4.8
1980-11-14 06:20:46.070 ,0,0,0.,4.8,1.,4.8,0.,4.8,0.,4.8
1980-11-14 06:20:50.870 ,0,0,0.,4.8,0.,4.8,0.,4.8,0.,4.8
1980-11-14 06:20:55.670 ,0,0,0.,4.8,1.,4.8,0.,4.8,0.,4.8
1980-11-14 06:21:00.470 ,0,0,0.,4.8,1.,4.8,0.,4.8,0.,4.8
1980-11-14 06:21:05.270 ,0,0,0.,4.8,0.,4.8,1.,4.8,0.,4.8
1980-11-14 06:21:10.070 ,0,0,0.,4.8,1.,4.8,1.,4.8,0.,4.8
1980-11-14 06:21:14.870 ,0,0,0.,4.8,1.,4.8,0.,4.8,0.,4.8
1980-11-14 06:21:19.670 ,0,0,0.,4.8,1.,4.8,0.,4.8,0.,4.8
1980-11-14 06:21:24.470 ,0,0,0.,4.8,0.,4.8,0.,4.8,0.,4.8
1980-11-14 06:21:29.270 ,0,0,0.,4.8,1.,4.8,0.,4.8,0.,4.8
1980-11-14 06:21:34.070 ,0,0,0.,4.8,2.,4.8,0.,4.8,0.,4.8
1980-11-14 06:21:38.870 ,0,0,0.,4.8,1.,4.8,0.,4.8,0.,4.8
1980-11-14 06:21:43.670 ,0,0,0.,4.8,1.,4.8,0.,4.8,0.,4.8
1980-11-14 06:21:48.470 ,0,0,0.,4.8,2.,4.8,0.,4.8,0.,4.8
1980-11-14 06:21:53.270 ,0,0,0.,4.8,0.,4.8,0.,4.8,0.,4.8
1980-11-14 06:21:58.070 ,0,0,0.,4.8,1.,4.8,0.,4.8,0.,4.8
1980-11-14 06:22:02.870 ,0,0,0.,4.8,1.,4.8,0.,4.8,0.,4.8
1980-11-14 06:22:07.670 ,0,0,0.,4.8,0.,4.8,0.,4.8,0.,4.8
1980-11-14 06:22:12.470 ,1,0,0.,4.8,5.,4.8,0.,4.8,0.,4.8
1980-11-14 06:22:17.270 ,1,0,0.,4.8,1.,4.8,0.,4.8,0.,4.8
1980-11-14 06:22:22.070 ,1,0,0.,4.8,1.,4.8,0.,4.8,0.,4.8
1980-11-14 06:22:26.870 ,1,0,0.,4.8,0.,4.8,0.,4.8,0.,4.8
1980-11-14 06:22:31.670 ,1,0,0.,4.8,2.,4.8,0.,4.8,0.,4.8
1980-11-14 06:22:36.470 ,1,0,0.,4.8,3.,4.8,0.,4.8,0.,4.8
1980-11-14 06:22:41.270 ,1,0,0.,4.8,5.,4.8,1.,4.8,0.,4.8
1980-11-14 06:22:46.070 ,1,0,0.,4.8,2.,4.8,0.,4.8,0.,4.8
1980-11-14 06:22:50.870 ,1,0,0.,4.8,0.,4.8,0.,4.8,0.,4.8
1980-11-14 06:22:55.670 ,1,0,0.,4.8,2.,4.8,0.,4.8,0.,4.8
1980-11-14 06:23:00.470 ,2,0,0.,4.8,0.,4.8,0.,4.8,0.,4.8
1980-11-14 06:23:05.270 ,2,0,0.,4.8,0.,4.8,0.,4.8,0.,4.8
1980-11-14 06:23:10.070 ,2,0,0.,4.8,0.,4.8,0.,4.8,1.,4.8
1980-11-14 06:23:14.870 ,2,0,0.,4.8,3.,4.8,0.,4.8,0.,4.8
1980-11-14 06:23:19.670 ,2,0,0.,4.8,1.,4.8,0.,4.8,0.,4.8
1980-11-14 06:23:24.470 ,2,0,0.,4.8,1.,4.8,0.,4.8,0.,4.8
1980-11-14 06:23:29.270 ,2,0,0.,4.8,0.,4.8,0.,4.8,0.,4.8
1980-11-14 06:23:34.070 ,2,0,0.,4.8,3.,4.8,1.,4.8,0.,4.8
1980-11-14 06:23:38.870 ,2,0,0.,4.8,1.,4.8,1.,4.8,0.,4.8
1980-11-14 06:23:43.670 ,2,0,0.,4.8,1.,4.8,0.,4.8,0.,4.8
1980-11-14 06:23:48.470 ,3,0,0.,4.8,2.,4.8,0.,4.8,0.,4.8
1980-11-14 06:23:53.270 ,3,0,0.,4.8,1.,4.8,0.,4.8,0.,4.8
1980-11-14 06:23:58.070 ,3,0,0.,4.8,3.,4.8,0.,4.8,0.,4.8
1980-11-14 06:24:02.870 ,3,0,0.,4.8,2.,4.8,0.,4.8,0.,4.8
1980-11-14 06:24:07.670 ,3,0,0.,4.8,4.,4.8,0.,4.8,0.,4.8
1980-11-14 06:24:12.470 ,3,0,0.,4.8,3.,4.8,0.,4.8,0.,4.8
1980-11-14 06:24:17.270 ,3,0,0.,4.8,3.,4.8,0.,4.8,0.,4.8
1980-11-14 06:24:22.070 ,3,0,0.,4.8,2.,4.8,0.,4.8,0.,4.8
1980-11-14 06:24:26.870 ,3,0,0.,4.8,2.,4.8,0.,4.8,0.,4.8
1980-11-14 06:24:31.670 ,3,0,0.,4.8,2.,4.8,0.,4.8,0.,4.8
1980-11-14 06:24:36.470 ,4,0,0.,4.8,1.,4.8,0.,4.8,0.,4.8
1980-11-14 06:24:41.270 ,4,0,0.,4.8,1.,4.8,0.,4.8,0.,4.8
1980-11-14 06:24:46.070 ,4,0,0.,4.8,1.,4.8,0.,4.8,0.,4.8
1980-11-14 06:24:50.870 ,4,0,0.,4.8,2.,4.8,0.,4.8,0.,4.8
1980-11-14 06:24:55.670 ,4,0,0.,4.8,2.,4.8,0.,4.8,0.,4.8
1980-11-14 06:25:00.470 ,4,0,0.,4.8,2.,4.8,0.,4.8,0.,4.8
1980-11-14 06:25:05.270 ,4,0,0.,4.8,2.,4.8,0.,4.8,0.,4.8
1980-11-14 06:25:10.070 ,4,0,0.,4.8,0.,4.8,0.,4.8,0.,4.8
1980-11-14 06:25:14.870 ,4,0,0.,4.8,1.,4.8,0.,4.8,1.,4.8
1980-11-14 06:25:19.670 ,4,0,0.,4.8,3.,4.8,0.,4.8,0.,4.8
1980-11-14 06:25:24.470 ,5,0,0.,4.8,3.,4.8,1.,4.8,0.,4.8
1980-11-14 06:25:29.270 ,5,0,0.,4.8,1.,4.8,0.,4.8,0.,4.8
1980-11-14 06:25:34.070 ,5,0,0.,4.8,3.,4.8,0.,4.8,0.,4.8
1980-11-14 06:25:38.870 ,5,0,0.,4.8,1.,4.8,0.,4.8,0.,4.8
1980-11-14 06:25:43.670 ,5,0,0.,4.8,0.,4.8,0.,4.8,0.,4.8
1980-11-14 06:25:48.470 ,5,0,0.,4.8,2.,4.8,0.,4.8,0.,4.8
1980-11-14 06:25:53.270 ,5,0,0.,4.8,2.,4.8,0.,4.8,0.,4.8
1980-11-14 06:25:58.070 ,5,0,0.,4.8,0.,4.8,0.,4.8,0.,4.8
1980-11-14 06:26:02.870 ,5,0,0.,4.8,5.,4.8,0.,4.8,0.,4.8
1980-11-14 06:26:07.670 ,5,0,0.,4.8,0.,4.8,1.,4.8,0.,4.8
1980-11-14 06:26:12.470 ,6,0,0.,4.8,0.,4.8,0.,4.8,0.,4.8
1980-11-14 06:26:17.270 ,6,0,0.,4.8,2.,4.8,0.,4.8,0.,4.8
1980-11-14 06:26:22.070 ,6,0,0.,4.8,1.,4.8,1.,4.8,0.,4.8
1980-11-14 06:26:26.870 ,6,0,0.,4.8,0.,4.8,0.,4.8,0.,4.8
1980-11-14 06:26:31.670 ,6,0,0.,4.8,2.,4.8,0.,4.8,0.,4.8
1980-11-14 06:26:36.470 ,6,0,0.,4.8,1.,4.8,0.,4.8,0.,4.8
1980-11-14 06:26:41.270 ,6,0,0.,4.8,2.,4.8,0.,4.8,0.,4.8
1980-11-14 06:26:46.070 ,6,0,0.,4.8,1.,4.8,0.,4.8,0.,4.8
1980-11-14 06:26:50.870 ,6,0,0.,4.8,1.,4.8,1.,4.8,0.,4.8
1980-11-14 06:26:55.670 ,6,0,0.,4.8,0.,4.8,0.,4.8,0.,4.8
1980-11-14 06:27:00.470 ,7,0,0.,4.8,1.,4.8,0.,4.8,0.,4.8
1980-11-14 06:27:05.270 ,7,0,0.,4.8,1.,4.8,0.,4.8,0.,4.8
1980-11-14 06:27:10.070 ,7,0,0.,4.8,0.,4.8,1.,4.8,1.,4.8
1980-11-14 06:27:14.870 ,7,0,0.,4.8,0.,4.8,2.,4.8,0.,4.8
1980-11-14 06:27:19.670 ,7,0,0.,4.8,0.,4.8,0.,4.8,0.,4.8
1980-11-14 06:27:24.470 ,7,0,0.,4.8,1.,4.8,3.,4.8,0.,4.8
1980-11-14 06:27:29.270 ,7,0,0.,4.8,0.,4.8,0.,4.8,2.,4.8
1980-11-14 06:27:34.070 ,7,0,0.,4.8,0.,4.8,0.,4.8,0.,4.8
1980-11-14 06:27:38.870 ,7,0,0.,4.8,0.,4.8,1.,4.8,1.,4.8
1980-11-14 06:27:43.670 ,7,0,0.,4.8,1.,4.8,0.,4.8,0.,4.8
1980-11-14 06:27:48.470 ,7,0,0.,4.8,1.,4.8,0.,4.8,0.,4.8
1980-11-14 06:27:53.270 ,7,0,0.,4.8,1.,4.8,0.,4.8,1.,4.8
1980-11-14 06:27:58.070 ,7,0,0.,4.8,0.,4.8,0.,4.8,0.,4.8
1980-11-14 06:28:02.870 ,7,0,0.,4.8,0.,4.8,0.,4.8,1.,4.8
1980-11-14 06:28:07.670 ,7,0,0.,4.8,0.,4.8,1.,4.8,0.,4.8
1980-11-14 06:28:12.470 ,7,0,0.,4.8,2.,4.8,1.,4.8,0.,4.8
1980-11-14 06:28:17.270 ,7,0,0.,4.8,0.,4.8,1.,4.8,0.,4.8
1980-11-14 06:28:22.070 ,7,0,0.,4.8,0.,4.8,0.,4.8,0.,4.8
1980-11-14 06:28:26.870 ,7,0,0.,4.8,0.,4.8,0.,4.8,1.,4.8
1980-11-14 06:28:31.670 ,7,0,0.,4.8,0.,4.8,0.,4.8,1.,4.8
1980-11-14 06:28:36.470 ,6,0,0.,4.8,0.,4.8,1.,4.8,0.,4.8
1980-11-14 06:28:41.270 ,6,0,0.,4.8,0.,4.8,2.,4.8,0.,4.8
1980-11-14 06:28:46.070 ,6,0,0.,4.8,1.,4.8,1.,4.8,0.,4.8
1980-11-14 06:28:50.870 ,6,0,0.,4.8,2.,4.8,0.,4.8,0.,4.8
1980-11-14 06:28:55.670 ,6,0,0.,4.8,2.,4.8,0.,4.8,0.,4.8
1980-11-14 06:29:00.470 ,0,0,0.,4.8,2.,4.8,0.,4.8,0.,4.8
1980-11-14 06:29:05.270 ,0,0,0.,4.8,2.,4.8,0.,4.8,0.,4.8
1980-11-14 06:29:10.070 ,0,0,0.,4.8,3.,4.8,0.,4.8,0.,4.8
1980-11-14 06:29:14.870 ,0,0,0.,4.8,0.,4.8,0.,4.8,0.,4.8
1980-11-14 06:29:19.670 ,0,0,0.,4.8,0.,4.8,0.,4.8,0.,4.8
1980-11-14 07:28:49.070 ,0,0,,0,,0,,0,,0
1980-11-14 07:28:53.870 ,0,0,,0,,0,,0,,0
1980-11-14 07:28:58.670 ,0,0,,0,,0,,0,,0
1980-11-14 07:29:03.470 ,0,0,0.,4.8,2.,4.8,0.,4.8,1.,4.8
1980-11-14 07:29:08.270 ,0,0,0.,4.8,1.,4.8,0.,4.8,0.,4.8
1980-11-14 07:29:00.470 ,0,0,0.,4.8,3.,4.8,0.,4.8,0.,4.8
1980-11-14 07:29:05.270 ,0,0,0.,4.8,2.,4.8,0.,4.8,0.,4.8
1980-11-14 07:29:10.070 ,0,0,0.,4.8,3.,4.8,0.,4.8,0.,4.8
1980-11-14 07:29:14.870 ,0,0,0.,4.8,1.,4.8,0.,4.8,0.,4.8
1980-11-14 07:29:19.670 ,0,0,0.,4.8,1.,4.8,0.,4.8,0.,4.8
1980-11-14 07:29:24.470 ,5,0,0.,4.8,1.,4.8,0.,4.8,0.,4.8
1980-11-14 07:29:29.270 ,5,0,0.,4.8,0.,4.8,0.,4.8,0.,4.8
1980-11-14 07:29:34.070 ,5,0,0.,4.8,2.,4.8,0.,4.8,0.,4.8
1980-11-14 07:29:38.870 ,5,0,0.,4.8,2.,4.8,0.,4.8,1.,4.8
1980-11-14 07:29:43.670 ,5,0,0.,4.8,5.,4.8,0.,4.8,0.,4.8
1980-11-14 07:29:48.470 ,5,0,0.,4.8,0.,4.8,0.,4.8,1.,4.8
1980-11-14 07:29:53.270 ,5,0,0.,4.8,0.,4.8,0.,4.8,0.,4.8
1980-11-14 07:29:58.070 ,5,0,0.,4.8,1.,4.8,0.,4.8,0.,4.8
1980-11-14 07:30:02.870 ,5,0,0.,4.8,4.,4.8,0.,4.8,0.,4.8
1980-11-14 07:30:07.670 ,5,0,0.,4.8,0.,4.8,0.,4.8,0.,4.8
1980-11-14 07:30:12.470 ,6,0,0.,4.8,0.,4.8,0.,4.8,0.,4.8
1980-11-14 07:30:17.270 ,6,0,0.,4.8,1.,4.8,0.,4.8,0.,4.8
1980-11-14 07:30:22.070 ,6,0,0.,4.8,0.,4.8,0.,4.8,0.,4.8
1980-11-14 07:30:26.870 ,6,0,0.,4.8,2.,4.8,0.,4.8,0.,4.8
1980-11-14 07:30:31.670 ,6,0,0.,4.8,1.,4.8,0.,4.8,0.,4.8
1980-11-14 07:30:36.470 ,6,0,0.,4.8,2.,4.8,1.,4.8,0.,4.8
1980-11-14 07:30:41.270 ,6,0,0.,4.8,0.,4.8,0.,4.8,0.,4.8
1980-11-14 07:30:46.070 ,6,0,0.,4.8,1.,4.8,0.,4.8,0.,4.8
1980-11-14 07:30:50.870 ,6,0,0.,4.8,1.,4.8,1.,4.8,0.,4.8
1980-11-14 07:30:55.670 ,6,0,0.,4.8,0.,4.8,0.,4.8,0.,4.8
1980-11-14 07:31:00.470 ,7,0,0.,4.8,1.,4.8,1.,4.8,0.,4.8
1980-11-14 07:31:05.270 ,7,0,0.,4.8,1.,4.8,0.,4.8,0.,4.8
1980-11-14 07:31:10.070 ,7,0,0.,4.8,1.,4.8,0.,4.8,0.,4.8
1980-11-14 07:31:14.870 ,7,0,0.,4.8,0.,4.8,0.,4.8,1.,4.8
1980-11-14 07:31:19.670 ,7,0,0.,4.8,1.,4.8,0.,4.8,2.,4.8
1980-11-14 07:31:24.470 ,7,0,0.,4.8,1.,4.8,0.,4.8,0.,4.8
1980-11-14 07:31:29.270 ,7,0,0.,4.8,0.,4.8,1.,4.8,0.,4.8
1980-11-14 07:31:34.070 ,7,0,0.,4.8,0.,4.8,0.,4.8,0.,4.8
1980-11-14 07:31:38.870 ,7,0,0.,4.8,0.,4.8,0.,4.8,0.,4.8
1980-11-14 07:31:43.670 ,7,0,0.,4.8,0.,4.8,0.,4.8,0.,4.8
1980-11-14 07:31:48.470 ,7,0,0.,4.8,0.,4.8,1.,4.8,0.,4.8
1980-11-14 07:31:53.270 ,7,0,0.,4.8,0.,4.8,1.,4.8,0.,4.8
1980-11-14 07:31:58.070 ,7,0,0.,4.8,0.,4.8,0.,4.8,0.,4.8
1980-11-14 07:32:02.870 ,7,0,0.,4.8,0.,4.8,1.,4.8,0.,4.8
1980-11-14 07:32:07.670 ,7,0,0.,4.8,0.,4.8,0.,4.8,0.,4.8
1980-11-14 07:32:12.470 ,7,0,0.,4.8,0.,4.8,0.,4.8,0.,4.8
1980-11-14 07:32:17.270 ,7,0,0.,4.8,1.,4.8,0.,4.8,0.,4.8
1980-11-14 07:32:22.070 ,7,0,0.,4.8,1.,4.8,0.,4.8,0.,4.8